Index of /20260417/WXO-DD/model_rdps/10km/12/003
Name Last modified Size Description
Parent Directory -
20260417T12Z_MSC_RDPS_AbsoluteVorticity_IsbL-0250_RLatLon0.09_PT003H.grib2 2026-04-17 14:41 724K
20260417T12Z_MSC_RDPS_AbsoluteVorticity_IsbL-0500_RLatLon0.09_PT003H.grib2 2026-04-17 14:41 548K
20260417T12Z_MSC_RDPS_AbsoluteVorticity_IsbL-0700_RLatLon0.09_PT003H.grib2 2026-04-17 14:41 605K
20260417T12Z_MSC_RDPS_AbsoluteVorticity_IsbL-0850_RLatLon0.09_PT003H.grib2 2026-04-17 14:41 779K
20260417T12Z_MSC_RDPS_AirTemp_AGL-120m_RLatLon0.09_PT003H.grib2 2026-04-17 14:41 400K
20260417T12Z_MSC_RDPS_AirTemp_AGL-2m_RLatLon0.09_PT003H.grib2 2026-04-17 14:41 643K
20260417T12Z_MSC_RDPS_AirTemp_AGL-40m_RLatLon0.09_PT003H.grib2 2026-04-17 14:41 415K
20260417T12Z_MSC_RDPS_AirTemp_AGL-80m_RLatLon0.09_PT003H.grib2 2026-04-17 14:41 408K
20260417T12Z_MSC_RDPS_AirTemp_IsbL-0001_RLatLon0.09_PT003H.grib2 2026-04-17 14:41 309K
20260417T12Z_MSC_RDPS_AirTemp_IsbL-0005_RLatLon0.09_PT003H.grib2 2026-04-17 14:41 321K
20260417T12Z_MSC_RDPS_AirTemp_IsbL-0010_RLatLon0.09_PT003H.grib2 2026-04-17 14:41 287K
20260417T12Z_MSC_RDPS_AirTemp_IsbL-0020_RLatLon0.09_PT003H.grib2 2026-04-17 14:41 304K
20260417T12Z_MSC_RDPS_AirTemp_IsbL-0030_RLatLon0.09_PT003H.grib2 2026-04-17 14:41 361K
20260417T12Z_MSC_RDPS_AirTemp_IsbL-0050_RLatLon0.09_PT003H.grib2 2026-04-17 14:41 312K
20260417T12Z_MSC_RDPS_AirTemp_IsbL-0100_RLatLon0.09_PT003H.grib2 2026-04-17 14:41 378K
20260417T12Z_MSC_RDPS_AirTemp_IsbL-0150_RLatLon0.09_PT003H.grib2 2026-04-17 14:41 392K
20260417T12Z_MSC_RDPS_AirTemp_IsbL-0175_RLatLon0.09_PT003H.grib2 2026-04-17 14:41 395K
20260417T12Z_MSC_RDPS_AirTemp_IsbL-0200_RLatLon0.09_PT003H.grib2 2026-04-17 14:41 405K
20260417T12Z_MSC_RDPS_AirTemp_IsbL-0225_RLatLon0.09_PT003H.grib2 2026-04-17 14:41 407K
20260417T12Z_MSC_RDPS_AirTemp_IsbL-0250_RLatLon0.09_PT003H.grib2 2026-04-17 14:41 416K
20260417T12Z_MSC_RDPS_AirTemp_IsbL-0275_RLatLon0.09_PT003H.grib2 2026-04-17 14:41 400K
20260417T12Z_MSC_RDPS_AirTemp_IsbL-0300_RLatLon0.09_PT003H.grib2 2026-04-17 14:41 405K
20260417T12Z_MSC_RDPS_AirTemp_IsbL-0350_RLatLon0.09_PT003H.grib2 2026-04-17 14:41 416K
20260417T12Z_MSC_RDPS_AirTemp_IsbL-0400_RLatLon0.09_PT003H.grib2 2026-04-17 14:41 415K
20260417T12Z_MSC_RDPS_AirTemp_IsbL-0450_RLatLon0.09_PT003H.grib2 2026-04-17 14:41 387K
20260417T12Z_MSC_RDPS_AirTemp_IsbL-0500_RLatLon0.09_PT003H.grib2 2026-04-17 14:41 398K
20260417T12Z_MSC_RDPS_AirTemp_IsbL-0550_RLatLon0.09_PT003H.grib2 2026-04-17 14:41 417K
20260417T12Z_MSC_RDPS_AirTemp_IsbL-0600_RLatLon0.09_PT003H.grib2 2026-04-17 14:41 437K
20260417T12Z_MSC_RDPS_AirTemp_IsbL-0650_RLatLon0.09_PT003H.grib2 2026-04-17 14:41 451K
20260417T12Z_MSC_RDPS_AirTemp_IsbL-0700_RLatLon0.09_PT003H.grib2 2026-04-17 14:41 474K
20260417T12Z_MSC_RDPS_AirTemp_IsbL-0750_RLatLon0.09_PT003H.grib2 2026-04-17 14:41 516K
20260417T12Z_MSC_RDPS_AirTemp_IsbL-0800_RLatLon0.09_PT003H.grib2 2026-04-17 14:41 576K
20260417T12Z_MSC_RDPS_AirTemp_IsbL-0850_RLatLon0.09_PT003H.grib2 2026-04-17 14:41 505K
20260417T12Z_MSC_RDPS_AirTemp_IsbL-0875_RLatLon0.09_PT003H.grib2 2026-04-17 14:41 519K
20260417T12Z_MSC_RDPS_AirTemp_IsbL-0900_RLatLon0.09_PT003H.grib2 2026-04-17 14:41 527K
20260417T12Z_MSC_RDPS_AirTemp_IsbL-0925_RLatLon0.09_PT003H.grib2 2026-04-17 14:41 529K
20260417T12Z_MSC_RDPS_AirTemp_IsbL-0950_RLatLon0.09_PT003H.grib2 2026-04-17 14:41 531K
20260417T12Z_MSC_RDPS_AirTemp_IsbL-0970_RLatLon0.09_PT003H.grib2 2026-04-17 14:41 537K
20260417T12Z_MSC_RDPS_AirTemp_IsbL-0985_RLatLon0.09_PT003H.grib2 2026-04-17 14:41 529K
20260417T12Z_MSC_RDPS_AirTemp_IsbL-1000_RLatLon0.09_PT003H.grib2 2026-04-17 14:41 512K
20260417T12Z_MSC_RDPS_AirTemp_IsbL-1015_RLatLon0.09_PT003H.grib2 2026-04-17 14:41 509K
20260417T12Z_MSC_RDPS_Albedo_Sfc_RLatLon0.09_PT003H.grib2 2026-04-17 14:41 170K
20260417T12Z_MSC_RDPS_CAPE_Sfc_RLatLon0.09_PT003H.grib2 2026-04-17 14:41 1.7M
20260417T12Z_MSC_RDPS_CIN_Sfc_RLatLon0.09_PT003H.grib2 2026-04-17 14:41 1.2M
20260417T12Z_MSC_RDPS_CloudWater_EAtm_RLatLon0.09_PT003H.grib2 2026-04-17 14:41 208K
20260417T12Z_MSC_RDPS_ConvectivePrecip-Accum_Sfc_RLatLon0.09_PT003H.grib2 2026-04-17 14:41 393K
20260417T12Z_MSC_RDPS_DewPointDepression_AGL-2m_RLatLon0.09_PT003H.grib2 2026-04-17 14:41 403K
20260417T12Z_MSC_RDPS_DewPointDepression_IsbL-0001_RLatLon0.09_PT003H.grib2 2026-04-17 14:41 193
20260417T12Z_MSC_RDPS_DewPointDepression_IsbL-0005_RLatLon0.09_PT003H.grib2 2026-04-17 14:41 193
20260417T12Z_MSC_RDPS_DewPointDepression_IsbL-0010_RLatLon0.09_PT003H.grib2 2026-04-17 14:41 193
20260417T12Z_MSC_RDPS_DewPointDepression_IsbL-0020_RLatLon0.09_PT003H.grib2 2026-04-17 14:41 193
20260417T12Z_MSC_RDPS_DewPointDepression_IsbL-0030_RLatLon0.09_PT003H.grib2 2026-04-17 14:41 9.8K
20260417T12Z_MSC_RDPS_DewPointDepression_IsbL-0050_RLatLon0.09_PT003H.grib2 2026-04-17 14:41 100K
20260417T12Z_MSC_RDPS_DewPointDepression_IsbL-0100_RLatLon0.09_PT003H.grib2 2026-04-17 14:41 120K
20260417T12Z_MSC_RDPS_DewPointDepression_IsbL-0150_RLatLon0.09_PT003H.grib2 2026-04-17 14:41 137K
20260417T12Z_MSC_RDPS_DewPointDepression_IsbL-0175_RLatLon0.09_PT003H.grib2 2026-04-17 14:41 174K
20260417T12Z_MSC_RDPS_DewPointDepression_IsbL-0200_RLatLon0.09_PT003H.grib2 2026-04-17 14:41 206K
20260417T12Z_MSC_RDPS_DewPointDepression_IsbL-0225_RLatLon0.09_PT003H.grib2 2026-04-17 14:41 243K
20260417T12Z_MSC_RDPS_DewPointDepression_IsbL-0250_RLatLon0.09_PT003H.grib2 2026-04-17 14:41 290K
20260417T12Z_MSC_RDPS_DewPointDepression_IsbL-0275_RLatLon0.09_PT003H.grib2 2026-04-17 14:41 299K
20260417T12Z_MSC_RDPS_DewPointDepression_IsbL-0300_RLatLon0.09_PT003H.grib2 2026-04-17 14:41 314K
20260417T12Z_MSC_RDPS_DewPointDepression_IsbL-0350_RLatLon0.09_PT003H.grib2 2026-04-17 14:41 316K
20260417T12Z_MSC_RDPS_DewPointDepression_IsbL-0400_RLatLon0.09_PT003H.grib2 2026-04-17 14:41 325K
20260417T12Z_MSC_RDPS_DewPointDepression_IsbL-0450_RLatLon0.09_PT003H.grib2 2026-04-17 14:41 330K
20260417T12Z_MSC_RDPS_DewPointDepression_IsbL-0500_RLatLon0.09_PT003H.grib2 2026-04-17 14:41 334K
20260417T12Z_MSC_RDPS_DewPointDepression_IsbL-0550_RLatLon0.09_PT003H.grib2 2026-04-17 14:41 347K
20260417T12Z_MSC_RDPS_DewPointDepression_IsbL-0600_RLatLon0.09_PT003H.grib2 2026-04-17 14:41 363K
20260417T12Z_MSC_RDPS_DewPointDepression_IsbL-0650_RLatLon0.09_PT003H.grib2 2026-04-17 14:41 370K
20260417T12Z_MSC_RDPS_DewPointDepression_IsbL-0700_RLatLon0.09_PT003H.grib2 2026-04-17 14:41 379K
20260417T12Z_MSC_RDPS_DewPointDepression_IsbL-0750_RLatLon0.09_PT003H.grib2 2026-04-17 14:41 404K
20260417T12Z_MSC_RDPS_DewPointDepression_IsbL-0800_RLatLon0.09_PT003H.grib2 2026-04-17 14:41 443K
20260417T12Z_MSC_RDPS_DewPointDepression_IsbL-0850_RLatLon0.09_PT003H.grib2 2026-04-17 14:41 468K
20260417T12Z_MSC_RDPS_DewPointDepression_IsbL-0875_RLatLon0.09_PT003H.grib2 2026-04-17 14:41 462K
20260417T12Z_MSC_RDPS_DewPointDepression_IsbL-0900_RLatLon0.09_PT003H.grib2 2026-04-17 14:41 456K
20260417T12Z_MSC_RDPS_DewPointDepression_IsbL-0925_RLatLon0.09_PT003H.grib2 2026-04-17 14:41 445K
20260417T12Z_MSC_RDPS_DewPointDepression_IsbL-0950_RLatLon0.09_PT003H.grib2 2026-04-17 14:41 439K
20260417T12Z_MSC_RDPS_DewPointDepression_IsbL-0970_RLatLon0.09_PT003H.grib2 2026-04-17 14:41 437K
20260417T12Z_MSC_RDPS_DewPointDepression_IsbL-0985_RLatLon0.09_PT003H.grib2 2026-04-17 14:41 436K
20260417T12Z_MSC_RDPS_DewPointDepression_IsbL-1000_RLatLon0.09_PT003H.grib2 2026-04-17 14:41 431K
20260417T12Z_MSC_RDPS_DewPointDepression_IsbL-1015_RLatLon0.09_PT003H.grib2 2026-04-17 14:41 425K
20260417T12Z_MSC_RDPS_DewPoint_AGL-2m_RLatLon0.09_PT003H.grib2 2026-04-17 14:41 315K
20260417T12Z_MSC_RDPS_DownwardLongwaveRadiationFlux-Accum_Sfc_RLatLon0.09_PT003H.grib2 2026-04-17 14:41 580K
20260417T12Z_MSC_RDPS_DownwardShortwaveRadiationFlux-Accum_NTAtm_RLatLon0.09_PT003H.grib2 2026-04-17 14:41 89K
20260417T12Z_MSC_RDPS_DownwardShortwaveRadiationFlux-Accum_Sfc_RLatLon0.09_PT003H.grib2 2026-04-17 14:41 374K
20260417T12Z_MSC_RDPS_FreezingRain-Accum1h_Sfc_RLatLon0.09_PT003H.grib2 2026-04-17 14:41 19K
20260417T12Z_MSC_RDPS_FreezingRain-Accum3h_Sfc_RLatLon0.09_PT003H.grib2 2026-04-17 14:41 26K
20260417T12Z_MSC_RDPS_FreezingRain-Accum_Sfc_RLatLon0.09_PT003H.grib2 2026-04-17 14:41 31K
20260417T12Z_MSC_RDPS_GeopotentialHeight_IsbL-0001_RLatLon0.09_PT003H.grib2 2026-04-17 14:41 210K
20260417T12Z_MSC_RDPS_GeopotentialHeight_IsbL-0005_RLatLon0.09_PT003H.grib2 2026-04-17 14:41 264K
20260417T12Z_MSC_RDPS_GeopotentialHeight_IsbL-0010_RLatLon0.09_PT003H.grib2 2026-04-17 14:41 304K
20260417T12Z_MSC_RDPS_GeopotentialHeight_IsbL-0020_RLatLon0.09_PT003H.grib2 2026-04-17 14:41 332K
20260417T12Z_MSC_RDPS_GeopotentialHeight_IsbL-0030_RLatLon0.09_PT003H.grib2 2026-04-17 14:41 334K
20260417T12Z_MSC_RDPS_GeopotentialHeight_IsbL-0050_RLatLon0.09_PT003H.grib2 2026-04-17 14:41 308K
20260417T12Z_MSC_RDPS_GeopotentialHeight_IsbL-0100_RLatLon0.09_PT003H.grib2 2026-04-17 14:41 220K
20260417T12Z_MSC_RDPS_GeopotentialHeight_IsbL-0150_RLatLon0.09_PT003H.grib2 2026-04-17 14:41 260K
20260417T12Z_MSC_RDPS_GeopotentialHeight_IsbL-0175_RLatLon0.09_PT003H.grib2 2026-04-17 14:41 262K
20260417T12Z_MSC_RDPS_GeopotentialHeight_IsbL-0200_RLatLon0.09_PT003H.grib2 2026-04-17 14:41 264K
20260417T12Z_MSC_RDPS_GeopotentialHeight_IsbL-0225_RLatLon0.09_PT003H.grib2 2026-04-17 14:41 266K
20260417T12Z_MSC_RDPS_GeopotentialHeight_IsbL-0250_RLatLon0.09_PT003H.grib2 2026-04-17 14:41 267K
20260417T12Z_MSC_RDPS_GeopotentialHeight_IsbL-0275_RLatLon0.09_PT003H.grib2 2026-04-17 14:41 266K
20260417T12Z_MSC_RDPS_GeopotentialHeight_IsbL-0300_RLatLon0.09_PT003H.grib2 2026-04-17 14:41 265K
20260417T12Z_MSC_RDPS_GeopotentialHeight_IsbL-0350_RLatLon0.09_PT003H.grib2 2026-04-17 14:41 230K
20260417T12Z_MSC_RDPS_GeopotentialHeight_IsbL-0400_RLatLon0.09_PT003H.grib2 2026-04-17 14:41 227K
20260417T12Z_MSC_RDPS_GeopotentialHeight_IsbL-0450_RLatLon0.09_PT003H.grib2 2026-04-17 14:41 222K
20260417T12Z_MSC_RDPS_GeopotentialHeight_IsbL-0500_RLatLon0.09_PT003H.grib2 2026-04-17 14:41 288K
20260417T12Z_MSC_RDPS_GeopotentialHeight_IsbL-0550_RLatLon0.09_PT003H.grib2 2026-04-17 14:41 284K
20260417T12Z_MSC_RDPS_GeopotentialHeight_IsbL-0600_RLatLon0.09_PT003H.grib2 2026-04-17 14:41 280K
20260417T12Z_MSC_RDPS_GeopotentialHeight_IsbL-0650_RLatLon0.09_PT003H.grib2 2026-04-17 14:41 279K
20260417T12Z_MSC_RDPS_GeopotentialHeight_IsbL-0700_RLatLon0.09_PT003H.grib2 2026-04-17 14:41 250K
20260417T12Z_MSC_RDPS_GeopotentialHeight_IsbL-0750_RLatLon0.09_PT003H.grib2 2026-04-17 14:41 252K
20260417T12Z_MSC_RDPS_GeopotentialHeight_IsbL-0800_RLatLon0.09_PT003H.grib2 2026-04-17 14:41 343K
20260417T12Z_MSC_RDPS_GeopotentialHeight_IsbL-0850_RLatLon0.09_PT003H.grib2 2026-04-17 14:41 352K
20260417T12Z_MSC_RDPS_GeopotentialHeight_IsbL-0875_RLatLon0.09_PT003H.grib2 2026-04-17 14:41 354K
20260417T12Z_MSC_RDPS_GeopotentialHeight_IsbL-0900_RLatLon0.09_PT003H.grib2 2026-04-17 14:41 361K
20260417T12Z_MSC_RDPS_GeopotentialHeight_IsbL-0925_RLatLon0.09_PT003H.grib2 2026-04-17 14:41 365K
20260417T12Z_MSC_RDPS_GeopotentialHeight_IsbL-0950_RLatLon0.09_PT003H.grib2 2026-04-17 14:41 369K
20260417T12Z_MSC_RDPS_GeopotentialHeight_IsbL-0970_RLatLon0.09_PT003H.grib2 2026-04-17 14:41 374K
20260417T12Z_MSC_RDPS_GeopotentialHeight_IsbL-0985_RLatLon0.09_PT003H.grib2 2026-04-17 14:41 384K
20260417T12Z_MSC_RDPS_GeopotentialHeight_IsbL-1000_RLatLon0.09_PT003H.grib2 2026-04-17 14:41 397K
20260417T12Z_MSC_RDPS_GeopotentialHeight_IsbL-1015_RLatLon0.09_PT003H.grib2 2026-04-17 14:41 413K
20260417T12Z_MSC_RDPS_Humidex_Sfc_RLatLon0.09_PT003H.grib2 2026-04-17 14:41 2.4M
20260417T12Z_MSC_RDPS_IcePellets-Accum1h_Sfc_RLatLon0.09_PT003H.grib2 2026-04-17 14:41 10K
20260417T12Z_MSC_RDPS_IcePellets-Accum3h_Sfc_RLatLon0.09_PT003H.grib2 2026-04-17 14:41 12K
20260417T12Z_MSC_RDPS_IcePellets-Accum_Sfc_RLatLon0.09_PT003H.grib2 2026-04-17 14:41 14K
20260417T12Z_MSC_RDPS_KIndex_Sfc_RLatLon0.09_PT003H.grib2 2026-04-17 14:41 2.4M
20260417T12Z_MSC_RDPS_LatentHeatNetFlux_Sfc_RLatLon0.09_PT003H.grib2 2026-04-17 14:41 353K
20260417T12Z_MSC_RDPS_LiftedIndex-MU-VT_IsbL-0500_RLatLon0.09_PT003H.grib2 2026-04-17 14:41 2.4M
20260417T12Z_MSC_RDPS_NetLongwaveRadiationFlux-Accum_Sfc_RLatLon0.09_PT003H.grib2 2026-04-17 14:41 592K
20260417T12Z_MSC_RDPS_NetShortwaveRadiationFlux-Accum_Sfc_RLatLon0.09_PT003H.grib2 2026-04-17 14:41 465K
20260417T12Z_MSC_RDPS_PlanetaryBoundaryLayerHeight_Sfc_RLatLon0.09_PT003H.grib2 2026-04-17 14:41 1.2M
20260417T12Z_MSC_RDPS_Precip-Accum1h_Sfc_RLatLon0.09_PT003H.grib2 2026-04-17 14:41 1.3M
20260417T12Z_MSC_RDPS_Precip-Accum3h_Sfc_RLatLon0.09_PT003H.grib2 2026-04-17 14:41 1.5M
20260417T12Z_MSC_RDPS_Precip-Accum_Sfc_RLatLon0.09_PT003H.grib2 2026-04-17 14:41 1.5M
20260417T12Z_MSC_RDPS_PrecipRate_Sfc_RLatLon0.09_PT003H.grib2 2026-04-17 14:41 179K
20260417T12Z_MSC_RDPS_PrecipType-Instant_Sfc_RLatLon0.09_PT003H.grib2 2026-04-17 14:41 562K
20260417T12Z_MSC_RDPS_Pressure-Trend3h_Sfc_RLatLon0.09_PT003H.grib2 2026-04-17 14:41 1.2M
20260417T12Z_MSC_RDPS_Pressure_MSL_RLatLon0.09_PT003H.grib2 2026-04-17 14:41 297K
20260417T12Z_MSC_RDPS_Pressure_PVU-1.5_RLatLon0.09_PT003H.grib2 2026-04-17 14:41 2.3M
20260417T12Z_MSC_RDPS_Pressure_PVU-1_RLatLon0.09_PT003H.grib2 2026-04-17 14:41 2.4M
20260417T12Z_MSC_RDPS_Pressure_PVU-2_RLatLon0.09_PT003H.grib2 2026-04-17 14:41 2.2M
20260417T12Z_MSC_RDPS_Pressure_Sfc_RLatLon0.09_PT003H.grib2 2026-04-17 14:41 501K
20260417T12Z_MSC_RDPS_RadiativeTemp_Sfc_RLatLon0.09_PT003H.grib2 2026-04-17 14:41 319K
20260417T12Z_MSC_RDPS_Rain-Accum1h_Sfc_RLatLon0.09_PT003H.grib2 2026-04-17 14:41 666K
20260417T12Z_MSC_RDPS_Rain-Accum3h_Sfc_RLatLon0.09_PT003H.grib2 2026-04-17 14:41 766K
20260417T12Z_MSC_RDPS_Rain-Accum_Sfc_RLatLon0.09_PT003H.grib2 2026-04-17 14:41 1.0M
20260417T12Z_MSC_RDPS_RelativeHumidity_AGL-2m_RLatLon0.09_PT003H.grib2 2026-04-17 14:41 1.0M
20260417T12Z_MSC_RDPS_RelativeHumidity_IsbL-0010_RLatLon0.09_PT003H.grib2 2026-04-17 14:41 641K
20260417T12Z_MSC_RDPS_RelativeHumidity_IsbL-0020_RLatLon0.09_PT003H.grib2 2026-04-17 14:41 396K
20260417T12Z_MSC_RDPS_RelativeHumidity_IsbL-0030_RLatLon0.09_PT003H.grib2 2026-04-17 14:41 346K
20260417T12Z_MSC_RDPS_RelativeHumidity_IsbL-0050_RLatLon0.09_PT003H.grib2 2026-04-17 14:41 378K
20260417T12Z_MSC_RDPS_RelativeHumidity_IsbL-0100_RLatLon0.09_PT003H.grib2 2026-04-17 14:41 254K
20260417T12Z_MSC_RDPS_RelativeHumidity_IsbL-0150_RLatLon0.09_PT003H.grib2 2026-04-17 14:41 363K
20260417T12Z_MSC_RDPS_RelativeHumidity_IsbL-0175_RLatLon0.09_PT003H.grib2 2026-04-17 14:41 451K
20260417T12Z_MSC_RDPS_RelativeHumidity_IsbL-0200_RLatLon0.09_PT003H.grib2 2026-04-17 14:41 529K
20260417T12Z_MSC_RDPS_RelativeHumidity_IsbL-0225_RLatLon0.09_PT003H.grib2 2026-04-17 14:41 595K
20260417T12Z_MSC_RDPS_RelativeHumidity_IsbL-0250_RLatLon0.09_PT003H.grib2 2026-04-17 14:41 672K
20260417T12Z_MSC_RDPS_RelativeHumidity_IsbL-0275_RLatLon0.09_PT003H.grib2 2026-04-17 14:41 700K
20260417T12Z_MSC_RDPS_RelativeHumidity_IsbL-0300_RLatLon0.09_PT003H.grib2 2026-04-17 14:41 740K
20260417T12Z_MSC_RDPS_RelativeHumidity_IsbL-0350_RLatLon0.09_PT003H.grib2 2026-04-17 14:41 753K
20260417T12Z_MSC_RDPS_RelativeHumidity_IsbL-0400_RLatLon0.09_PT003H.grib2 2026-04-17 14:41 767K
20260417T12Z_MSC_RDPS_RelativeHumidity_IsbL-0450_RLatLon0.09_PT003H.grib2 2026-04-17 14:41 772K
20260417T12Z_MSC_RDPS_RelativeHumidity_IsbL-0500_RLatLon0.09_PT003H.grib2 2026-04-17 14:41 790K
20260417T12Z_MSC_RDPS_RelativeHumidity_IsbL-0550_RLatLon0.09_PT003H.grib2 2026-04-17 14:41 813K
20260417T12Z_MSC_RDPS_RelativeHumidity_IsbL-0600_RLatLon0.09_PT003H.grib2 2026-04-17 14:41 837K
20260417T12Z_MSC_RDPS_RelativeHumidity_IsbL-0650_RLatLon0.09_PT003H.grib2 2026-04-17 14:41 847K
20260417T12Z_MSC_RDPS_RelativeHumidity_IsbL-0700_RLatLon0.09_PT003H.grib2 2026-04-17 14:41 869K
20260417T12Z_MSC_RDPS_RelativeHumidity_IsbL-0750_RLatLon0.09_PT003H.grib2 2026-04-17 14:41 918K
20260417T12Z_MSC_RDPS_RelativeHumidity_IsbL-0800_RLatLon0.09_PT003H.grib2 2026-04-17 14:41 1.0M
20260417T12Z_MSC_RDPS_RelativeHumidity_IsbL-0850_RLatLon0.09_PT003H.grib2 2026-04-17 14:41 1.0M
20260417T12Z_MSC_RDPS_RelativeHumidity_IsbL-0875_RLatLon0.09_PT003H.grib2 2026-04-17 14:41 1.1M
20260417T12Z_MSC_RDPS_RelativeHumidity_IsbL-0900_RLatLon0.09_PT003H.grib2 2026-04-17 14:41 1.1M
20260417T12Z_MSC_RDPS_RelativeHumidity_IsbL-0925_RLatLon0.09_PT003H.grib2 2026-04-17 14:41 1.1M
20260417T12Z_MSC_RDPS_RelativeHumidity_IsbL-0950_RLatLon0.09_PT003H.grib2 2026-04-17 14:41 1.1M
20260417T12Z_MSC_RDPS_RelativeHumidity_IsbL-0970_RLatLon0.09_PT003H.grib2 2026-04-17 14:41 1.1M
20260417T12Z_MSC_RDPS_RelativeHumidity_IsbL-0985_RLatLon0.09_PT003H.grib2 2026-04-17 14:41 1.0M
20260417T12Z_MSC_RDPS_RelativeHumidity_IsbL-1000_RLatLon0.09_PT003H.grib2 2026-04-17 14:41 1.0M
20260417T12Z_MSC_RDPS_RelativeHumidity_IsbL-1015_RLatLon0.09_PT003H.grib2 2026-04-17 14:41 1.0M
20260417T12Z_MSC_RDPS_Runoff-Accum_Sfc_RLatLon0.09_PT003H.grib2 2026-04-17 14:41 30K
20260417T12Z_MSC_RDPS_SWEATIndex_Sfc_RLatLon0.09_PT003H.grib2 2026-04-17 14:41 2.4M
20260417T12Z_MSC_RDPS_SeeingIndex_EAtm_RLatLon0.09_PT003H.grib2 2026-04-17 14:41 1.0M
20260417T12Z_MSC_RDPS_SensibleHeatNetFlux_Sfc_RLatLon0.09_PT003H.grib2 2026-04-17 14:41 347K
20260417T12Z_MSC_RDPS_ShowalterIndex_IsbL-0500_RLatLon0.09_PT003H.grib2 2026-04-17 14:41 2.6M
20260417T12Z_MSC_RDPS_SkyTransparencyIndex_EAtm_RLatLon0.09_PT003H.grib2 2026-04-17 14:41 706K
20260417T12Z_MSC_RDPS_Snow-Accum1h_Sfc_RLatLon0.09_PT003H.grib2 2026-04-17 14:41 549K
20260417T12Z_MSC_RDPS_Snow-Accum3h_Sfc_RLatLon0.09_PT003H.grib2 2026-04-17 14:41 535K
20260417T12Z_MSC_RDPS_Snow-Accum_Sfc_RLatLon0.09_PT003H.grib2 2026-04-17 14:41 701K
20260417T12Z_MSC_RDPS_SnowDensity_Sfc_RLatLon0.09_PT003H.grib2 2026-04-17 14:41 176K
20260417T12Z_MSC_RDPS_SnowDepth_Sfc_RLatLon0.09_PT003H.grib2 2026-04-17 14:41 730K
20260417T12Z_MSC_RDPS_SoilTemp_DBS-0to10cm_RLatLon0.09_PT003H.grib2 2026-04-17 14:41 189K
20260417T12Z_MSC_RDPS_SoilTemp_Sfc_RLatLon0.09_PT003H.grib2 2026-04-17 14:41 281K
20260417T12Z_MSC_RDPS_SoilVolumetricIceContent_Sfc_RLatLon0.09_PT003H.grib2 2026-04-17 14:41 178K
20260417T12Z_MSC_RDPS_SoilVolumetricWaterContent_DBS-0to10cm_RLatLon0.09_PT003H.grib2 2026-04-17 14:41 245K
20260417T12Z_MSC_RDPS_SoilVolumetricWaterContent_DBS-0to1cm_RLatLon0.09_PT003H.grib2 2026-04-17 14:41 328K
20260417T12Z_MSC_RDPS_SpecificHumidity_AGL-120m_RLatLon0.09_PT003H.grib2 2026-04-17 14:41 481K
20260417T12Z_MSC_RDPS_SpecificHumidity_AGL-2m_RLatLon0.09_PT003H.grib2 2026-04-17 14:41 642K
20260417T12Z_MSC_RDPS_SpecificHumidity_AGL-40m_RLatLon0.09_PT003H.grib2 2026-04-17 14:41 486K
20260417T12Z_MSC_RDPS_SpecificHumidity_AGL-80m_RLatLon0.09_PT003H.grib2 2026-04-17 14:41 483K
20260417T12Z_MSC_RDPS_SpecificHumidity_IsbL-0001_RLatLon0.09_PT003H.grib2 2026-04-17 14:41 347K
20260417T12Z_MSC_RDPS_SpecificHumidity_IsbL-0005_RLatLon0.09_PT003H.grib2 2026-04-17 14:41 339K
20260417T12Z_MSC_RDPS_SpecificHumidity_IsbL-0010_RLatLon0.09_PT003H.grib2 2026-04-17 14:41 374K
20260417T12Z_MSC_RDPS_SpecificHumidity_IsbL-0020_RLatLon0.09_PT003H.grib2 2026-04-17 14:41 376K
20260417T12Z_MSC_RDPS_SpecificHumidity_IsbL-0030_RLatLon0.09_PT003H.grib2 2026-04-17 14:41 433K
20260417T12Z_MSC_RDPS_SpecificHumidity_IsbL-0050_RLatLon0.09_PT003H.grib2 2026-04-17 14:41 455K
20260417T12Z_MSC_RDPS_SpecificHumidity_IsbL-0100_RLatLon0.09_PT003H.grib2 2026-04-17 14:41 378K
20260417T12Z_MSC_RDPS_SpecificHumidity_IsbL-0150_RLatLon0.09_PT003H.grib2 2026-04-17 14:41 418K
20260417T12Z_MSC_RDPS_SpecificHumidity_IsbL-0175_RLatLon0.09_PT003H.grib2 2026-04-17 14:41 518K
20260417T12Z_MSC_RDPS_SpecificHumidity_IsbL-0200_RLatLon0.09_PT003H.grib2 2026-04-17 14:41 429K
20260417T12Z_MSC_RDPS_SpecificHumidity_IsbL-0225_RLatLon0.09_PT003H.grib2 2026-04-17 14:41 430K
20260417T12Z_MSC_RDPS_SpecificHumidity_IsbL-0250_RLatLon0.09_PT003H.grib2 2026-04-17 14:41 538K
20260417T12Z_MSC_RDPS_SpecificHumidity_IsbL-0275_RLatLon0.09_PT003H.grib2 2026-04-17 14:41 454K
20260417T12Z_MSC_RDPS_SpecificHumidity_IsbL-0300_RLatLon0.09_PT003H.grib2 2026-04-17 14:41 521K
20260417T12Z_MSC_RDPS_SpecificHumidity_IsbL-0350_RLatLon0.09_PT003H.grib2 2026-04-17 14:41 508K
20260417T12Z_MSC_RDPS_SpecificHumidity_IsbL-0400_RLatLon0.09_PT003H.grib2 2026-04-17 14:41 492K
20260417T12Z_MSC_RDPS_SpecificHumidity_IsbL-0450_RLatLon0.09_PT003H.grib2 2026-04-17 14:41 544K
20260417T12Z_MSC_RDPS_SpecificHumidity_IsbL-0500_RLatLon0.09_PT003H.grib2 2026-04-17 14:41 480K
20260417T12Z_MSC_RDPS_SpecificHumidity_IsbL-0550_RLatLon0.09_PT003H.grib2 2026-04-17 14:41 539K
20260417T12Z_MSC_RDPS_SpecificHumidity_IsbL-0600_RLatLon0.09_PT003H.grib2 2026-04-17 14:41 610K
20260417T12Z_MSC_RDPS_SpecificHumidity_IsbL-0650_RLatLon0.09_PT003H.grib2 2026-04-17 14:41 649K
20260417T12Z_MSC_RDPS_SpecificHumidity_IsbL-0700_RLatLon0.09_PT003H.grib2 2026-04-17 14:41 564K
20260417T12Z_MSC_RDPS_SpecificHumidity_IsbL-0750_RLatLon0.09_PT003H.grib2 2026-04-17 14:41 623K
20260417T12Z_MSC_RDPS_SpecificHumidity_IsbL-0800_RLatLon0.09_PT003H.grib2 2026-04-17 14:41 706K
20260417T12Z_MSC_RDPS_SpecificHumidity_IsbL-0850_RLatLon0.09_PT003H.grib2 2026-04-17 14:41 789K
20260417T12Z_MSC_RDPS_SpecificHumidity_IsbL-0875_RLatLon0.09_PT003H.grib2 2026-04-17 14:41 805K
20260417T12Z_MSC_RDPS_SpecificHumidity_IsbL-0900_RLatLon0.09_PT003H.grib2 2026-04-17 14:41 818K
20260417T12Z_MSC_RDPS_SpecificHumidity_IsbL-0925_RLatLon0.09_PT003H.grib2 2026-04-17 14:41 821K
20260417T12Z_MSC_RDPS_SpecificHumidity_IsbL-0950_RLatLon0.09_PT003H.grib2 2026-04-17 14:41 822K
20260417T12Z_MSC_RDPS_SpecificHumidity_IsbL-0970_RLatLon0.09_PT003H.grib2 2026-04-17 14:41 818K
20260417T12Z_MSC_RDPS_SpecificHumidity_IsbL-0985_RLatLon0.09_PT003H.grib2 2026-04-17 14:41 674K
20260417T12Z_MSC_RDPS_SpecificHumidity_IsbL-1000_RLatLon0.09_PT003H.grib2 2026-04-17 14:41 665K
20260417T12Z_MSC_RDPS_SpecificHumidity_IsbL-1015_RLatLon0.09_PT003H.grib2 2026-04-17 14:41 655K
20260417T12Z_MSC_RDPS_SpecificHumidity_Sfc_RLatLon0.09_PT003H.grib2 2026-04-17 14:41 309K
20260417T12Z_MSC_RDPS_StormRelativeHelicity_EtaL-10000_RLatLon0.09_PT003H.grib2 2026-04-17 14:41 1.1M
20260417T12Z_MSC_RDPS_StormSeverityIndex_EtaL-10000_RLatLon0.09_PT003H.grib2 2026-04-17 14:41 1.1M
20260417T12Z_MSC_RDPS_Thickness_IsbL-0850to0700_RLatLon0.09_PT003H.grib2 2026-04-17 14:41 175K
20260417T12Z_MSC_RDPS_Thickness_IsbL-1000to0500_RLatLon0.09_PT003H.grib2 2026-04-17 14:41 198K
20260417T12Z_MSC_RDPS_Thickness_IsbL-1000to0850_RLatLon0.09_PT003H.grib2 2026-04-17 14:41 188K
20260417T12Z_MSC_RDPS_TotalCloudCover_Sfc_RLatLon0.09_PT003H.grib2 2026-04-17 14:41 662K
20260417T12Z_MSC_RDPS_TotalTotalsIndex_Sfc_RLatLon0.09_PT003H.grib2 2026-04-17 14:41 2.3M
20260417T12Z_MSC_RDPS_UVIndex-ClearSky_Sfc_RLatLon0.09_PT003H.grib2 2026-04-17 14:41 169K
20260417T12Z_MSC_RDPS_UVIndex_Sfc_RLatLon0.09_PT003H.grib2 2026-04-17 14:41 397K
20260417T12Z_MSC_RDPS_UpwardLongwaveRadiationFlux_NTAtm_RLatLon0.09_PT003H.grib2 2026-04-17 14:41 480K
20260417T12Z_MSC_RDPS_UpwardShortwaveRadiationFlux_NTAtm_RLatLon0.09_PT003H.grib2 2026-04-17 14:41 456K
20260417T12Z_MSC_RDPS_VerticalVelocity_IsbL-0250_RLatLon0.09_PT003H.grib2 2026-04-17 14:41 679K
20260417T12Z_MSC_RDPS_VerticalVelocity_IsbL-0500_RLatLon0.09_PT003H.grib2 2026-04-17 14:41 534K
20260417T12Z_MSC_RDPS_VerticalVelocity_IsbL-0700_RLatLon0.09_PT003H.grib2 2026-04-17 14:41 581K
20260417T12Z_MSC_RDPS_VerticalVelocity_IsbL-0850_RLatLon0.09_PT003H.grib2 2026-04-17 14:41 688K
20260417T12Z_MSC_RDPS_VerticalWindShear_EtaL-6500_RLatLon0.09_PT003H.grib2 2026-04-17 14:41 1.2M
20260417T12Z_MSC_RDPS_WindChill_Sfc_RLatLon0.09_PT003H.grib2 2026-04-17 14:41 1.1M
20260417T12Z_MSC_RDPS_WindDir_AGL-10m_RLatLon0.09_PT003H.grib2 2026-04-17 14:41 1.0M
20260417T12Z_MSC_RDPS_WindDir_AGL-120m_RLatLon0.09_PT003H.grib2 2026-04-17 14:41 623K
20260417T12Z_MSC_RDPS_WindDir_AGL-40m_RLatLon0.09_PT003H.grib2 2026-04-17 14:41 652K
20260417T12Z_MSC_RDPS_WindDir_AGL-80m_RLatLon0.09_PT003H.grib2 2026-04-17 14:41 635K
20260417T12Z_MSC_RDPS_WindDir_IsbL-0001_RLatLon0.09_PT003H.grib2 2026-04-17 14:41 265K
20260417T12Z_MSC_RDPS_WindDir_IsbL-0005_RLatLon0.09_PT003H.grib2 2026-04-17 14:41 329K
20260417T12Z_MSC_RDPS_WindDir_IsbL-0010_RLatLon0.09_PT003H.grib2 2026-04-17 14:41 346K
20260417T12Z_MSC_RDPS_WindDir_IsbL-0020_RLatLon0.09_PT003H.grib2 2026-04-17 14:41 356K
20260417T12Z_MSC_RDPS_WindDir_IsbL-0030_RLatLon0.09_PT003H.grib2 2026-04-17 14:41 365K
20260417T12Z_MSC_RDPS_WindDir_IsbL-0050_RLatLon0.09_PT003H.grib2 2026-04-17 14:41 383K
20260417T12Z_MSC_RDPS_WindDir_IsbL-0100_RLatLon0.09_PT003H.grib2 2026-04-17 14:41 376K
20260417T12Z_MSC_RDPS_WindDir_IsbL-0150_RLatLon0.09_PT003H.grib2 2026-04-17 14:41 365K
20260417T12Z_MSC_RDPS_WindDir_IsbL-0175_RLatLon0.09_PT003H.grib2 2026-04-17 14:41 389K
20260417T12Z_MSC_RDPS_WindDir_IsbL-0200_RLatLon0.09_PT003H.grib2 2026-04-17 14:41 411K
20260417T12Z_MSC_RDPS_WindDir_IsbL-0225_RLatLon0.09_PT003H.grib2 2026-04-17 14:41 421K
20260417T12Z_MSC_RDPS_WindDir_IsbL-0250_RLatLon0.09_PT003H.grib2 2026-04-17 14:41 427K
20260417T12Z_MSC_RDPS_WindDir_IsbL-0275_RLatLon0.09_PT003H.grib2 2026-04-17 14:41 451K
20260417T12Z_MSC_RDPS_WindDir_IsbL-0300_RLatLon0.09_PT003H.grib2 2026-04-17 14:41 450K
20260417T12Z_MSC_RDPS_WindDir_IsbL-0350_RLatLon0.09_PT003H.grib2 2026-04-17 14:41 470K
20260417T12Z_MSC_RDPS_WindDir_IsbL-0400_RLatLon0.09_PT003H.grib2 2026-04-17 14:41 489K
20260417T12Z_MSC_RDPS_WindDir_IsbL-0450_RLatLon0.09_PT003H.grib2 2026-04-17 14:41 508K
20260417T12Z_MSC_RDPS_WindDir_IsbL-0500_RLatLon0.09_PT003H.grib2 2026-04-17 14:41 539K
20260417T12Z_MSC_RDPS_WindDir_IsbL-0550_RLatLon0.09_PT003H.grib2 2026-04-17 14:41 563K
20260417T12Z_MSC_RDPS_WindDir_IsbL-0600_RLatLon0.09_PT003H.grib2 2026-04-17 14:41 590K
20260417T12Z_MSC_RDPS_WindDir_IsbL-0650_RLatLon0.09_PT003H.grib2 2026-04-17 14:41 630K
20260417T12Z_MSC_RDPS_WindDir_IsbL-0700_RLatLon0.09_PT003H.grib2 2026-04-17 14:41 676K
20260417T12Z_MSC_RDPS_WindDir_IsbL-0750_RLatLon0.09_PT003H.grib2 2026-04-17 14:41 728K
20260417T12Z_MSC_RDPS_WindDir_IsbL-0800_RLatLon0.09_PT003H.grib2 2026-04-17 14:41 793K
20260417T12Z_MSC_RDPS_WindDir_IsbL-0850_RLatLon0.09_PT003H.grib2 2026-04-17 14:41 868K
20260417T12Z_MSC_RDPS_WindDir_IsbL-0875_RLatLon0.09_PT003H.grib2 2026-04-17 14:41 895K
20260417T12Z_MSC_RDPS_WindDir_IsbL-0900_RLatLon0.09_PT003H.grib2 2026-04-17 14:41 911K
20260417T12Z_MSC_RDPS_WindDir_IsbL-0925_RLatLon0.09_PT003H.grib2 2026-04-17 14:41 920K
20260417T12Z_MSC_RDPS_WindDir_IsbL-0950_RLatLon0.09_PT003H.grib2 2026-04-17 14:41 922K
20260417T12Z_MSC_RDPS_WindDir_IsbL-0970_RLatLon0.09_PT003H.grib2 2026-04-17 14:41 930K
20260417T12Z_MSC_RDPS_WindDir_IsbL-0985_RLatLon0.09_PT003H.grib2 2026-04-17 14:41 941K
20260417T12Z_MSC_RDPS_WindDir_IsbL-1000_RLatLon0.09_PT003H.grib2 2026-04-17 14:41 957K
20260417T12Z_MSC_RDPS_WindDir_IsbL-1015_RLatLon0.09_PT003H.grib2 2026-04-17 14:41 1.0M
20260417T12Z_MSC_RDPS_WindGust-Max_AGL-10m_RLatLon0.09_PT003H.grib2 2026-04-17 14:41 959K
20260417T12Z_MSC_RDPS_WindGust-Min_AGL-10m_RLatLon0.09_PT003H.grib2 2026-04-17 14:41 1.0M
20260417T12Z_MSC_RDPS_WindGust_AGL-10m_RLatLon0.09_PT003H.grib2 2026-04-17 14:41 1.0M
20260417T12Z_MSC_RDPS_WindSpeed_AGL-10m_RLatLon0.09_PT003H.grib2 2026-04-17 14:41 848K
20260417T12Z_MSC_RDPS_WindSpeed_AGL-120m_RLatLon0.09_PT003H.grib2 2026-04-17 14:41 543K
20260417T12Z_MSC_RDPS_WindSpeed_AGL-40m_RLatLon0.09_PT003H.grib2 2026-04-17 14:41 545K
20260417T12Z_MSC_RDPS_WindSpeed_AGL-80m_RLatLon0.09_PT003H.grib2 2026-04-17 14:41 545K
20260417T12Z_MSC_RDPS_WindSpeed_IsbL-0001_RLatLon0.09_PT003H.grib2 2026-04-17 14:41 244K
20260417T12Z_MSC_RDPS_WindSpeed_IsbL-0005_RLatLon0.09_PT003H.grib2 2026-04-17 14:41 327K
20260417T12Z_MSC_RDPS_WindSpeed_IsbL-0010_RLatLon0.09_PT003H.grib2 2026-04-17 14:41 336K
20260417T12Z_MSC_RDPS_WindSpeed_IsbL-0020_RLatLon0.09_PT003H.grib2 2026-04-17 14:41 352K
20260417T12Z_MSC_RDPS_WindSpeed_IsbL-0030_RLatLon0.09_PT003H.grib2 2026-04-17 14:41 316K
20260417T12Z_MSC_RDPS_WindSpeed_IsbL-0050_RLatLon0.09_PT003H.grib2 2026-04-17 14:41 353K
20260417T12Z_MSC_RDPS_WindSpeed_IsbL-0100_RLatLon0.09_PT003H.grib2 2026-04-17 14:41 436K
20260417T12Z_MSC_RDPS_WindSpeed_IsbL-0150_RLatLon0.09_PT003H.grib2 2026-04-17 14:41 358K
20260417T12Z_MSC_RDPS_WindSpeed_IsbL-0175_RLatLon0.09_PT003H.grib2 2026-04-17 14:41 383K
20260417T12Z_MSC_RDPS_WindSpeed_IsbL-0200_RLatLon0.09_PT003H.grib2 2026-04-17 14:41 426K
20260417T12Z_MSC_RDPS_WindSpeed_IsbL-0225_RLatLon0.09_PT003H.grib2 2026-04-17 14:41 436K
20260417T12Z_MSC_RDPS_WindSpeed_IsbL-0250_RLatLon0.09_PT003H.grib2 2026-04-17 14:41 443K
20260417T12Z_MSC_RDPS_WindSpeed_IsbL-0275_RLatLon0.09_PT003H.grib2 2026-04-17 14:41 459K
20260417T12Z_MSC_RDPS_WindSpeed_IsbL-0300_RLatLon0.09_PT003H.grib2 2026-04-17 14:41 457K
20260417T12Z_MSC_RDPS_WindSpeed_IsbL-0350_RLatLon0.09_PT003H.grib2 2026-04-17 14:41 467K
20260417T12Z_MSC_RDPS_WindSpeed_IsbL-0400_RLatLon0.09_PT003H.grib2 2026-04-17 14:41 451K
20260417T12Z_MSC_RDPS_WindSpeed_IsbL-0450_RLatLon0.09_PT003H.grib2 2026-04-17 14:41 448K
20260417T12Z_MSC_RDPS_WindSpeed_IsbL-0500_RLatLon0.09_PT003H.grib2 2026-04-17 14:41 565K
20260417T12Z_MSC_RDPS_WindSpeed_IsbL-0550_RLatLon0.09_PT003H.grib2 2026-04-17 14:41 569K
20260417T12Z_MSC_RDPS_WindSpeed_IsbL-0600_RLatLon0.09_PT003H.grib2 2026-04-17 14:41 582K
20260417T12Z_MSC_RDPS_WindSpeed_IsbL-0650_RLatLon0.09_PT003H.grib2 2026-04-17 14:41 603K
20260417T12Z_MSC_RDPS_WindSpeed_IsbL-0700_RLatLon0.09_PT003H.grib2 2026-04-17 14:41 627K
20260417T12Z_MSC_RDPS_WindSpeed_IsbL-0750_RLatLon0.09_PT003H.grib2 2026-04-17 14:41 657K
20260417T12Z_MSC_RDPS_WindSpeed_IsbL-0800_RLatLon0.09_PT003H.grib2 2026-04-17 14:41 710K
20260417T12Z_MSC_RDPS_WindSpeed_IsbL-0850_RLatLon0.09_PT003H.grib2 2026-04-17 14:41 769K
20260417T12Z_MSC_RDPS_WindSpeed_IsbL-0875_RLatLon0.09_PT003H.grib2 2026-04-17 14:41 791K
20260417T12Z_MSC_RDPS_WindSpeed_IsbL-0900_RLatLon0.09_PT003H.grib2 2026-04-17 14:41 807K
20260417T12Z_MSC_RDPS_WindSpeed_IsbL-0925_RLatLon0.09_PT003H.grib2 2026-04-17 14:41 864K
20260417T12Z_MSC_RDPS_WindSpeed_IsbL-0950_RLatLon0.09_PT003H.grib2 2026-04-17 14:41 864K
20260417T12Z_MSC_RDPS_WindSpeed_IsbL-0970_RLatLon0.09_PT003H.grib2 2026-04-17 14:41 863K
20260417T12Z_MSC_RDPS_WindSpeed_IsbL-0985_RLatLon0.09_PT003H.grib2 2026-04-17 14:41 856K
20260417T12Z_MSC_RDPS_WindSpeed_IsbL-1000_RLatLon0.09_PT003H.grib2 2026-04-17 14:41 854K
20260417T12Z_MSC_RDPS_WindSpeed_IsbL-1015_RLatLon0.09_PT003H.grib2 2026-04-17 14:41 847K
20260417T12Z_MSC_RDPS_WindU_AGL-10m_RLatLon0.09_PT003H.grib2 2026-04-17 14:41 437K
20260417T12Z_MSC_RDPS_WindU_AGL-120m_RLatLon0.09_PT003H.grib2 2026-04-17 14:41 423K
20260417T12Z_MSC_RDPS_WindU_AGL-40m_RLatLon0.09_PT003H.grib2 2026-04-17 14:41 542K
20260417T12Z_MSC_RDPS_WindU_AGL-80m_RLatLon0.09_PT003H.grib2 2026-04-17 14:41 423K
20260417T12Z_MSC_RDPS_WindU_IsbL-0001_RLatLon0.09_PT003H.grib2 2026-04-17 14:41 286K
20260417T12Z_MSC_RDPS_WindU_IsbL-0005_RLatLon0.09_PT003H.grib2 2026-04-17 14:41 294K
20260417T12Z_MSC_RDPS_WindU_IsbL-0010_RLatLon0.09_PT003H.grib2 2026-04-17 14:41 302K
20260417T12Z_MSC_RDPS_WindU_IsbL-0020_RLatLon0.09_PT003H.grib2 2026-04-17 14:41 246K
20260417T12Z_MSC_RDPS_WindU_IsbL-0030_RLatLon0.09_PT003H.grib2 2026-04-17 14:41 247K
20260417T12Z_MSC_RDPS_WindU_IsbL-0050_RLatLon0.09_PT003H.grib2 2026-04-17 14:41 348K
20260417T12Z_MSC_RDPS_WindU_IsbL-0100_RLatLon0.09_PT003H.grib2 2026-04-17 14:41 332K
20260417T12Z_MSC_RDPS_WindU_IsbL-0150_RLatLon0.09_PT003H.grib2 2026-04-17 14:41 377K
20260417T12Z_MSC_RDPS_WindU_IsbL-0175_RLatLon0.09_PT003H.grib2 2026-04-17 14:41 401K
20260417T12Z_MSC_RDPS_WindU_IsbL-0200_RLatLon0.09_PT003H.grib2 2026-04-17 14:41 421K
20260417T12Z_MSC_RDPS_WindU_IsbL-0225_RLatLon0.09_PT003H.grib2 2026-04-17 14:41 430K
20260417T12Z_MSC_RDPS_WindU_IsbL-0250_RLatLon0.09_PT003H.grib2 2026-04-17 14:41 337K
20260417T12Z_MSC_RDPS_WindU_IsbL-0275_RLatLon0.09_PT003H.grib2 2026-04-17 14:41 351K
20260417T12Z_MSC_RDPS_WindU_IsbL-0300_RLatLon0.09_PT003H.grib2 2026-04-17 14:41 347K
20260417T12Z_MSC_RDPS_WindU_IsbL-0350_RLatLon0.09_PT003H.grib2 2026-04-17 14:41 353K
20260417T12Z_MSC_RDPS_WindU_IsbL-0400_RLatLon0.09_PT003H.grib2 2026-04-17 14:41 456K
20260417T12Z_MSC_RDPS_WindU_IsbL-0450_RLatLon0.09_PT003H.grib2 2026-04-17 14:41 455K
20260417T12Z_MSC_RDPS_WindU_IsbL-0500_RLatLon0.09_PT003H.grib2 2026-04-17 14:41 455K
20260417T12Z_MSC_RDPS_WindU_IsbL-0550_RLatLon0.09_PT003H.grib2 2026-04-17 14:41 459K
20260417T12Z_MSC_RDPS_WindU_IsbL-0600_RLatLon0.09_PT003H.grib2 2026-04-17 14:41 471K
20260417T12Z_MSC_RDPS_WindU_IsbL-0650_RLatLon0.09_PT003H.grib2 2026-04-17 14:41 472K
20260417T12Z_MSC_RDPS_WindU_IsbL-0700_RLatLon0.09_PT003H.grib2 2026-04-17 14:41 494K
20260417T12Z_MSC_RDPS_WindU_IsbL-0750_RLatLon0.09_PT003H.grib2 2026-04-17 14:41 522K
20260417T12Z_MSC_RDPS_WindU_IsbL-0800_RLatLon0.09_PT003H.grib2 2026-04-17 14:41 570K
20260417T12Z_MSC_RDPS_WindU_IsbL-0850_RLatLon0.09_PT003H.grib2 2026-04-17 14:41 631K
20260417T12Z_MSC_RDPS_WindU_IsbL-0875_RLatLon0.09_PT003H.grib2 2026-04-17 14:41 648K
20260417T12Z_MSC_RDPS_WindU_IsbL-0900_RLatLon0.09_PT003H.grib2 2026-04-17 14:41 661K
20260417T12Z_MSC_RDPS_WindU_IsbL-0925_RLatLon0.09_PT003H.grib2 2026-04-17 14:41 667K
20260417T12Z_MSC_RDPS_WindU_IsbL-0950_RLatLon0.09_PT003H.grib2 2026-04-17 14:41 658K
20260417T12Z_MSC_RDPS_WindU_IsbL-0970_RLatLon0.09_PT003H.grib2 2026-04-17 14:41 657K
20260417T12Z_MSC_RDPS_WindU_IsbL-0985_RLatLon0.09_PT003H.grib2 2026-04-17 14:41 655K
20260417T12Z_MSC_RDPS_WindU_IsbL-1000_RLatLon0.09_PT003H.grib2 2026-04-17 14:41 794K
20260417T12Z_MSC_RDPS_WindU_IsbL-1015_RLatLon0.09_PT003H.grib2 2026-04-17 14:41 789K
20260417T12Z_MSC_RDPS_WindV_AGL-10m_RLatLon0.09_PT003H.grib2 2026-04-17 14:41 434K
20260417T12Z_MSC_RDPS_WindV_AGL-120m_RLatLon0.09_PT003H.grib2 2026-04-17 14:41 419K
20260417T12Z_MSC_RDPS_WindV_AGL-40m_RLatLon0.09_PT003H.grib2 2026-04-17 14:41 537K
20260417T12Z_MSC_RDPS_WindV_AGL-80m_RLatLon0.09_PT003H.grib2 2026-04-17 14:41 537K
20260417T12Z_MSC_RDPS_WindV_IsbL-0001_RLatLon0.09_PT003H.grib2 2026-04-17 14:41 204K
20260417T12Z_MSC_RDPS_WindV_IsbL-0005_RLatLon0.09_PT003H.grib2 2026-04-17 14:41 292K
20260417T12Z_MSC_RDPS_WindV_IsbL-0010_RLatLon0.09_PT003H.grib2 2026-04-17 14:41 327K
20260417T12Z_MSC_RDPS_WindV_IsbL-0020_RLatLon0.09_PT003H.grib2 2026-04-17 14:41 304K
20260417T12Z_MSC_RDPS_WindV_IsbL-0030_RLatLon0.09_PT003H.grib2 2026-04-17 14:41 308K
20260417T12Z_MSC_RDPS_WindV_IsbL-0050_RLatLon0.09_PT003H.grib2 2026-04-17 14:41 344K
20260417T12Z_MSC_RDPS_WindV_IsbL-0100_RLatLon0.09_PT003H.grib2 2026-04-17 14:41 420K
20260417T12Z_MSC_RDPS_WindV_IsbL-0150_RLatLon0.09_PT003H.grib2 2026-04-17 14:41 373K
20260417T12Z_MSC_RDPS_WindV_IsbL-0175_RLatLon0.09_PT003H.grib2 2026-04-17 14:41 308K
20260417T12Z_MSC_RDPS_WindV_IsbL-0200_RLatLon0.09_PT003H.grib2 2026-04-17 14:41 325K
20260417T12Z_MSC_RDPS_WindV_IsbL-0225_RLatLon0.09_PT003H.grib2 2026-04-17 14:41 333K
20260417T12Z_MSC_RDPS_WindV_IsbL-0250_RLatLon0.09_PT003H.grib2 2026-04-17 14:41 336K
20260417T12Z_MSC_RDPS_WindV_IsbL-0275_RLatLon0.09_PT003H.grib2 2026-04-17 14:41 349K
20260417T12Z_MSC_RDPS_WindV_IsbL-0300_RLatLon0.09_PT003H.grib2 2026-04-17 14:41 345K
20260417T12Z_MSC_RDPS_WindV_IsbL-0350_RLatLon0.09_PT003H.grib2 2026-04-17 14:41 352K
20260417T12Z_MSC_RDPS_WindV_IsbL-0400_RLatLon0.09_PT003H.grib2 2026-04-17 14:41 353K
20260417T12Z_MSC_RDPS_WindV_IsbL-0450_RLatLon0.09_PT003H.grib2 2026-04-17 14:41 452K
20260417T12Z_MSC_RDPS_WindV_IsbL-0500_RLatLon0.09_PT003H.grib2 2026-04-17 14:41 454K
20260417T12Z_MSC_RDPS_WindV_IsbL-0550_RLatLon0.09_PT003H.grib2 2026-04-17 14:41 458K
20260417T12Z_MSC_RDPS_WindV_IsbL-0600_RLatLon0.09_PT003H.grib2 2026-04-17 14:41 468K
20260417T12Z_MSC_RDPS_WindV_IsbL-0650_RLatLon0.09_PT003H.grib2 2026-04-17 14:41 470K
20260417T12Z_MSC_RDPS_WindV_IsbL-0700_RLatLon0.09_PT003H.grib2 2026-04-17 14:41 492K
20260417T12Z_MSC_RDPS_WindV_IsbL-0750_RLatLon0.09_PT003H.grib2 2026-04-17 14:41 519K
20260417T12Z_MSC_RDPS_WindV_IsbL-0800_RLatLon0.09_PT003H.grib2 2026-04-17 14:41 565K
20260417T12Z_MSC_RDPS_WindV_IsbL-0850_RLatLon0.09_PT003H.grib2 2026-04-17 14:41 618K
20260417T12Z_MSC_RDPS_WindV_IsbL-0875_RLatLon0.09_PT003H.grib2 2026-04-17 14:41 637K
20260417T12Z_MSC_RDPS_WindV_IsbL-0900_RLatLon0.09_PT003H.grib2 2026-04-17 14:41 651K
20260417T12Z_MSC_RDPS_WindV_IsbL-0925_RLatLon0.09_PT003H.grib2 2026-04-17 14:41 656K
20260417T12Z_MSC_RDPS_WindV_IsbL-0950_RLatLon0.09_PT003H.grib2 2026-04-17 14:41 653K
20260417T12Z_MSC_RDPS_WindV_IsbL-0970_RLatLon0.09_PT003H.grib2 2026-04-17 14:41 651K
20260417T12Z_MSC_RDPS_WindV_IsbL-0985_RLatLon0.09_PT003H.grib2 2026-04-17 14:41 789K
20260417T12Z_MSC_RDPS_WindV_IsbL-1000_RLatLon0.09_PT003H.grib2 2026-04-17 14:41 787K
20260417T12Z_MSC_RDPS_WindV_IsbL-1015_RLatLon0.09_PT003H.grib2 2026-04-17 14:41 782K